Weather History for Houston / Southwest Airport, TX

Change the Weather History Date:

Tuesday, February 11, 2014

  Actual Average (KHOU) Record (KHOU)
Temperature  
Mean Temperature 37 °F 56 °F  
Max Temperature 40 °F 66 °F 82 °F (1999)
Min Temperature 34 °F 46 °F 20 °F (1981)
Degree Days  
Heating Degree Days 28 10  
Month to date heating degree days 119  
Since 1 July heating degree days 1043  
Moisture  
Dew Point 36 °F    
Average Humidity 95    
Maximum Humidity 100    
Minimum Humidity 78    
Precipitation  
Precipitation 0.07 in 0.11 in 1.88 in (1898)
Month to date precipitation 1.20  
Year to date precipitation 4.58  
Sea Level Pressure  
Sea Level Pressure 30.15 in    
Wind  
Wind Speed 10 mph (North)    
Max Wind Speed 14 mph    
Max Gust Speed 21 mph    
Visibility 7 miles    
Events Rain , Thunderstorm    
T = Trace of Precipitation, MM = Missing Value Source: NWS Daily Summary

Daily Weather History Graph

Daily Weather History Graph

Search for Another Location

Airport:

Trip Planner

Search our weather history database for the weather conditions in past years. The results will help you decide how hot, cold, wet, or windy it might be!

Date:

Astronomy

Feb. 11, 2014 Rise Set
Actual Time 7:04 AM CST 6:08 PM CST
Civil Twilight 6:39 AM CST 6:32 PM CST
Nautical Twilight 6:11 AM CST 7:00 PM CST
Astronomical Twilight 5:44 AM CST 7:28 PM CST
Moon 3:35 PM CST (2/11) 4:35 AM CST (2/11)
Length of Visible Light 11h 52m
Length of Day
11h 03m
Waxing Gibbous, 91% of the Moon is Illuminated
Feb 11
Waxing Gibbous
Feb 14
Full
Feb 22
Last Quarter
Mar 1
New
Mar 8
First Quarter

Hourly Weather History & Observations

Time (CST) Temp. Windchill Dew Point Humidity Pressure Visibility Wind Dir Wind Speed Gust Speed Precip Events Conditions
12:15 AM 39.4 °F 33.2 °F 39.4 °F 100% 30.13 in 7.0 mi North 9.2 mph 16.1 mph N/A   Overcast
12:35 AM 39.4 °F 34.5 °F 39.4 °F 100% 30.13 in 7.0 mi North 6.9 mph - N/A   Overcast
12:55 AM 39.2 °F 32.0 °F 39.2 °F 100% 30.12 in 7.0 mi North 11.5 mph 18.4 mph N/A   Overcast
1:15 AM 39.2 °F 34.2 °F 39.2 °F 100% 30.12 in 10.0 mi North 6.9 mph - N/A   Overcast
1:35 AM 39.2 °F 32.0 °F 39.2 °F 100% 30.13 in 10.0 mi North 11.5 mph 16.1 mph N/A   Overcast
1:55 AM 39.2 °F 32.0 °F 39.2 °F 100% 30.13 in 7.0 mi North 11.5 mph 17.3 mph N/A   Overcast
2:15 AM 38.7 °F 31.8 °F 38.7 °F 100% 30.12 in 7.0 mi North 10.4 mph 16.1 mph N/A   Overcast
2:35 AM 38.5 °F 30.7 °F 38.5 °F 100% 30.12 in 7.0 mi North 12.7 mph 18.4 mph N/A   Overcast
2:55 AM 38.3 °F 31.4 °F 38.3 °F 100% 30.12 in 7.0 mi North 10.4 mph 16.1 mph N/A   Overcast
3:15 AM 37.8 °F 30.2 °F 37.8 °F 100% 30.12 in 5.0 mi North 11.5 mph - N/A   Overcast
3:35 AM 37.8 °F 32.5 °F 37.8 °F 100% 30.13 in 5.0 mi North 6.9 mph 17.3 mph N/A   Overcast
3:55 AM 37.4 °F 29.3 °F 37.4 °F 100% 30.12 in 5.0 mi North 12.7 mph 18.4 mph N/A   Overcast
4:15 AM 37.4 °F 30.3 °F 37.4 °F 100% 30.12 in 5.0 mi North 10.4 mph 16.1 mph N/A   Overcast
4:35 AM 36.9 °F 30.1 °F 36.9 °F 100% 30.12 in 5.0 mi North 9.2 mph 16.1 mph N/A   Overcast
4:55 AM 36.7 °F 28.4 °F 36.7 °F 100% 30.12 in 5.0 mi North 12.7 mph 19.6 mph N/A   Overcast
5:15 AM 36.5 °F 28.2 °F 36.5 °F 100% 30.13 in 7.0 mi North 12.7 mph 19.6 mph N/A   Overcast
5:35 AM 36.5 °F 30.3 °F 36.5 °F 100% 30.13 in 7.0 mi North 8.1 mph 20.7 mph N/A   Overcast
5:55 AM 36.5 °F 28.7 °F 36.0 °F 98% 30.13 in 10.0 mi North 11.5 mph 18.4 mph N/A   Overcast
6:15 AM 36.5 °F 30.3 °F 35.6 °F 97% 30.15 in 10.0 mi North 8.1 mph 16.1 mph N/A   Overcast
6:35 AM 36.5 °F 30.3 °F 35.6 °F 97% 30.15 in 10.0 mi North 8.1 mph 11.5 mph N/A   Overcast
6:55 AM 36.5 °F 29.7 °F 35.6 °F 97% 30.15 in 7.0 mi North 9.2 mph - N/A   Overcast
7:15 AM 36.3 °F 28.9 °F 35.2 °F 96% 30.17 in 7.0 mi North 10.4 mph 17.3 mph N/A   Overcast
7:35 AM 36.1 °F 27.3 °F 35.1 °F 96% 30.16 in 7.0 mi NNE 13.8 mph 18.4 mph N/A   Overcast
7:55 AM 36.5 °F 31.8 °F 35.4 °F 96% 30.18 in 7.0 mi North 5.8 mph - N/A   Overcast
8:15 AM 36.0 °F 27.5 °F 34.7 °F 95% 30.17 in 7.0 mi North 12.7 mph 19.6 mph N/A   Overcast
8:35 AM 36.0 °F 29.0 °F 34.7 °F 95% 30.18 in 7.0 mi North 9.2 mph 18.4 mph N/A   Overcast
8:55 AM 36.5 °F 30.3 °F 34.7 °F 93% 30.19 in 7.0 mi North 8.1 mph - N/A   Overcast
9:15 AM 36.5 °F 28.7 °F 34.7 °F 93% 30.19 in 7.0 mi North 11.5 mph - N/A   Overcast
9:35 AM 36.5 °F 29.7 °F 34.3 °F 92% 30.20 in 7.0 mi North 9.2 mph - N/A   Overcast
9:55 AM 36.9 °F 29.1 °F 34.5 °F 91% 30.22 in 7.0 mi North 11.5 mph 17.3 mph N/A   Overcast
10:15 AM 37.0 °F 29.3 °F 34.7 °F 91% 30.21 in 7.0 mi North 11.5 mph 17.3 mph N/A   Overcast
10:35 AM 37.9 °F 30.0 °F 34.2 °F 86% 30.21 in 10.0 mi North 12.7 mph 17.3 mph N/A   Overcast
10:55 AM 38.3 °F 31.4 °F 33.3 °F 82% 30.21 in 10.0 mi North 10.4 mph 19.6 mph N/A   Overcast
11:15 AM 38.3 °F 30.1 °F 33.1 °F 81% 30.20 in 10.0 mi NNE 13.8 mph 17.3 mph N/A   Overcast
11:35 AM 39.2 °F 32.0 °F 33.3 °F 79% 30.17 in 10.0 mi NNE 11.5 mph 19.6 mph N/A   Overcast
11:55 AM 39.6 °F 33.5 °F 33.3 °F 78% 30.18 in 10.0 mi NNE 9.2 mph - N/A   Overcast
12:15 PM 39.6 °F 33.0 °F 33.4 °F 79% 30.17 in 10.0 mi NNE 10.4 mph - N/A   Overcast
12:35 PM 40.3 °F 34.9 °F 33.8 °F 78% 30.15 in 10.0 mi North 8.1 mph - N/A   Overcast
12:55 PM 40.3 °F 35.5 °F 34.7 °F 80% 30.14 in 10.0 mi North 6.9 mph - N/A   Drizzle
1:15 PM 39.4 °F 33.8 °F 35.4 °F 86% 30.14 in 7.0 mi North 8.1 mph - N/A   Overcast
1:35 PM 39.2 °F 33.0 °F 35.1 °F 85% 30.12 in 10.0 mi North 9.2 mph - N/A   Overcast
1:55 PM 40.1 °F 33.6 °F 35.1 °F 82% 30.10 in 10.0 mi North 10.4 mph - N/A   Overcast
2:15 PM 40.5 °F 35.1 °F 35.1 °F 81% 30.11 in 10.0 mi North 8.1 mph - N/A   Overcast
2:35 PM 40.5 °F 35.1 °F 34.5 °F 79% 30.11 in 10.0 mi NNW 8.1 mph - N/A   Overcast
2:55 PM 40.1 °F 33.6 °F 35.8 °F 85% 30.11 in 5.0 mi NNW 10.4 mph - N/A Thunderstorm Unknown
3:15 PM 39.7 °F 33.7 °F 37.0 °F 90% 30.11 in 4.0 mi NNW 9.2 mph - N/A Rain Heavy Rain
3:35 PM 39.4 °F 32.7 °F 38.3 °F 96% 30.11 in 5.0 mi North 10.4 mph 17.3 mph 0.01 in Rain Light Rain
3:55 PM 39.2 °F 33.0 °F 38.3 °F 97% 30.10 in 7.0 mi NNW 9.2 mph - N/A   Light Drizzle
4:15 PM 38.5 °F 30.7 °F 37.6 °F 97% 30.10 in 5.0 mi NNW 12.7 mph 16.1 mph N/A Thunderstorm Drizzle
4:35 PM 38.3 °F 34.8 °F 37.9 °F 99% 30.11 in 4.0 mi North 4.6 mph - 0.04 in Rain Light Rain
4:55 PM 38.3 °F 33.9 °F 38.3 °F 100% 30.11 in 4.0 mi NNW 5.8 mph - N/A Rain Light Rain
5:15 PM 38.5 °F 32.1 °F 38.5 °F 100% 30.13 in 3.0 mi NNW 9.2 mph - 0.02 in Rain , Thunderstorm Light Thunderstorms and Rain
5:35 PM 38.3 °F 32.5 °F 37.9 °F 99% 30.13 in 5.0 mi NNW 8.1 mph - 0.02 in   Light Drizzle
5:55 PM 37.8 °F 31.3 °F 37.4 °F 99% 30.13 in 5.0 mi North 9.2 mph 16.1 mph N/A   Light Drizzle
6:15 PM 37.6 °F 31.0 °F 36.9 °F 97% 30.14 in 7.0 mi North 9.2 mph - N/A   Overcast
6:35 PM 37.6 °F 33.1 °F 36.9 °F 97% 30.14 in 10.0 mi North 5.8 mph - N/A   Overcast
6:55 PM 37.6 °F 31.6 °F 37.2 °F 99% 30.14 in 5.0 mi NNW 8.1 mph - N/A   Drizzle
7:15 PM 37.0 °F 30.4 °F 36.7 °F 99% 30.14 in 5.0 mi North 9.2 mph - N/A   Light Drizzle
7:35 PM 37.0 °F 32.4 °F 37.0 °F 100% 30.16 in 5.0 mi NW 5.8 mph - N/A   Drizzle
7:55 PM 36.7 °F 30.5 °F 36.7 °F 100% 30.16 in 4.0 mi NW 8.1 mph - N/A Rain Rain
8:15 PM 36.1 °F 28.7 °F 36.1 °F 100% 30.17 in 4.0 mi NNW 10.4 mph - N/A   Drizzle
8:35 PM 36.0 °F 30.3 °F 36.0 °F 100% 30.18 in 3.0 mi NW 6.9 mph - N/A   Drizzle
8:55 PM 35.6 °F 30.7 °F 35.6 °F 100% 30.19 in 2.5 mi NW 5.8 mph - N/A Rain Light Rain
9:15 PM 35.6 °F 29.9 °F 35.6 °F 100% 30.19 in 3.0 mi NNW 6.9 mph - N/A   Drizzle
9:35 PM 35.6 °F 28.6 °F 35.6 °F 100% 30.19 in 5.0 mi North 9.2 mph - N/A   Drizzle
9:55 PM 35.2 °F 28.1 °F 35.2 °F 100% 30.19 in 7.0 mi NNW 9.2 mph - N/A   Overcast
10:15 PM 35.2 °F 28.1 °F 35.2 °F 100% 30.19 in 10.0 mi North 9.2 mph - N/A   Overcast
10:35 PM 35.1 °F 27.9 °F 34.9 °F 99% 30.19 in 10.0 mi North 9.2 mph - N/A   Overcast
10:55 PM 34.9 °F 28.3 °F 34.9 °F 100% 30.17 in 7.0 mi NNW 8.1 mph - N/A   Overcast
11:15 PM 34.9 °F 28.3 °F 34.9 °F 100% 30.17 in 10.0 mi North 8.1 mph - N/A   Overcast
11:35 PM 34.9 °F 27.7 °F 34.9 °F 100% 30.16 in 10.0 mi NNW 9.2 mph - N/A   Overcast
11:55 PM 34.9 °F 27.7 °F 34.9 °F 100% 30.16 in 7.0 mi NNW 9.2 mph - N/A   Overcast